www.pogodaiklimat.ru

Погода и климат >> Архив погоды >> Австралия >> Fitzroy Crossing Aero


ПОГОДА в Fitzroy Crossing Aero

  • Прогноз погоды в Fitzroy Crossing Aero
  • Монитор погоды в Fitzroy Crossing Aero
  • Климат города

АРХИВ ПОГОДЫ в Fitzroy Crossing Aero

Время (UTC), дата Ветер
(напр.,м/с)
 
Видим.   Явления Облачность Т
(С)
Тd
(С)
f
(%)
Тe
(С)
Тes
(С)
Комфортность P
(гПа)
Po
(гПа)
Тmin
(С)
Tmax
(С)
R
(мм)
R24
(мм)
S
(см)
16 12.07 Ю 3 н/о н/о +12.4 -7.0 25 +12 +12 1016.1 1002.7
18 12.07 Ю 2 н/о н/о +10.5 -6.8 29 +10 +10 1015.6 1002.2
19 12.07 Ю 3 н/о н/о +10.2 -7.0 29 +9 +9 1015.3 1001.9
21 12.07 штиль 0 н/о н/о +7.3 -5.1 41 +7 +7 1015.2 1001.8
22 12.07 штиль 0 н/о н/о +6.4 -4.1 47 +6 +6 1016.0 1002.6
00 13.07 штиль 0 н/о н/о +15.5 -5.0 24 +16 +16 1017.1 1003.7
01 13.07 ЮВ 3 н/о н/о +20.6 -3.1 20 +21 +21 комфорт 1017.2 1003.8 +5.9
03 13.07 В 5 н/о н/о +26.2 -4.4 13 +24 +24 комфорт 1015.9 1002.5
04 13.07 В 5 н/о н/о +27.6 -6.7 10 +24 +24 комфорт 1015.0 1001.6
06 13.07 ЮВ 4 н/о н/о +28.1 -7.7 9 +25 +25 комфорт 1013.1 999.8
07 13.07 ЮЗ 3 н/о н/о +28.5 -7.4 9 +25 +25 комфорт 1012.4 999.1
09 13.07 Ю 3 н/о н/о +26.1 -7.9 10 +23 +23 комфорт 1012.8 999.5
10 13.07 Ю 3 н/о н/о +22.2 -4.8 16 +21 +21 комфорт 1013.2 999.9
12 13.07 ЮВ 4 н/о н/о +19.0 -4.4 20 +19 +19 1014.5 1001.1
13 13.07 Ю 4 н/о н/о +18.4 -5.6 19 +18 +18 1014.8 1001.4 +29.2
15 13.07 Ю 2 н/о н/о +13.1 -5.0 28 +13 +13 1015.0 1001.6
16 13.07 штиль 0 н/о н/о +12.3 -4.3 31 +12 +12 1015.0 1001.6
18 13.07 штиль 0 н/о н/о +10.5 -3.2 38 +10 +10 1014.9 1001.5
19 13.07 штиль 0 н/о н/о +9.0 -3.9 40 +9 +9 1015.0 1001.6
21 13.07 штиль 0 н/о н/о +8.9 -3.3 42 +9 +9 1015.0 1001.6
22 13.07 Ю 3 н/о н/о +9.3 -4.3 38 +8 +8 1015.3 1001.9
00 14.07 штиль 0 н/о н/о +16.7 -3.4 25 +17 +17 1016.2 1002.8
01 14.07 В 2 н/о н/о +21.4 -1.8 21 +21 +21 комфорт 1016.5 1003.1 +7.4
03 14.07 В 4 н/о н/о +26.4 -4.2 13 +24 +24 комфорт 1014.8 1001.4
04 14.07 СВ 3 н/о н/о +28.9 -4.5 11 +26 +26 жарко 1013.3 1000.0
06 14.07 С 2 н/о н/о +29.2 -5.5 10 +26 +26 жарко 1011.7 998.4
07 14.07 ЮЗ 4 н/о н/о +29.3 -5.4 10 +26 +26 жарко 1011.0 997.7
09 14.07 ЮВ 2 н/о н/о +26.5 -4.1 13 +24 +24 комфорт 1011.1 997.8
10 14.07 Ю 3 н/о н/о +22.6 -2.2 19 +21 +21 комфорт 1011.4 998.1
12 14.07 ЮВ 4 н/о н/о +19.7 -3.2 21 +20 +20 1012.6 999.3
13 14.07 Ю 3 н/о н/о +17.7 -1.5 27 +18 +18 1013.0 999.7 +30.1
15 14.07 штиль 0 н/о н/о +12.4 -1.9 37 +12 +12 1013.3 1000.0
16 14.07 ЮЗ 3 н/о н/о +10.9 -1.5 42 +10 +10 1013.3 1000.0
18 14.07 ЮЗ 2 н/о н/о +9.9 -1.5 45 +9 +9 1013.3 1000.0
19 14.07 С 1 н/о н/о +8.8 -1.6 48 +9 +9 1013.5 1000.1
21 14.07 штиль 0 н/о н/о +7.8 -2.0 50 +8 +8 1013.8 1000.4
22 14.07 С 2 н/о н/о +8.4 -1.4 50 +7 +7 1014.5 1001.1
00 15.07 ЮЗ 1 н/о н/о +17.4 -2.3 26 +19 +19 1016.0 1002.6
01 15.07 ЮВ 3 н/о н/о +21.9 -2.0 20 +21 +21 комфорт 1015.9 1002.5 +7.6
03 15.07 ЮВ 4 н/о н/о +28.0 -7.8 9 +25 +25 комфорт 1014.7 1001.3
04 15.07 Ю 4 н/о н/о +29.0 -5.7 10 +26 +26 жарко 1013.7 1000.3
06 15.07 З 4 н/о н/о +30.2 -6.1 9 +26 +26 жарко 1012.1 998.8
07 15.07 ЮЗ 5 н/о н/о +29.8 -6.4 9 +26 +26 жарко 1011.7 998.4
09 15.07 ЮЗ 3 н/о н/о +27.1 -7.1 10 +24 +24 комфорт 1012.0 998.7
10 15.07 Ю 3 н/о н/о +23.5 -4.6 15 +22 +22 комфорт 1012.4 999.1
12 15.07 штиль 0 н/о н/о +15.5 -4.4 25 +16 +16 1014.1 1000.7
13 15.07 штиль 0 н/о н/о +15.3 -3.1 28 +15 +15 1014.3 1000.9 +30.7
15 15.07 ЮЗ 3 н/о н/о +11.1 -3.4 36 +10 +10 1014.5 1001.1
16 15.07 ЮЗ 1 н/о н/о +11.0 -2.8 38 +11 +11 1014.6 1001.2
18 15.07 ЮВ 3 н/о н/о +11.2 -4.1 34 +10 +10 1014.4 1001.0
19 15.07 Ю 3 н/о н/о +12.5 -5.5 28 +12 +12 1014.1 1000.7
21 15.07 ЮЗ 2 н/о н/о +9.5 -5.2 35 +9 +9 1014.5 1001.1
22 15.07 С 2 н/о н/о +8.5 -3.7 42 +8 +8 1015.1 1001.7
00 16.07 ЮВ 2 н/о н/о +18.1 -3.9 22 +19 +19 1015.7 1002.3
01 16.07 В 3 н/о н/о +23.1 -3.3 17 +21 +21 комфорт 1016.1 1002.7 +7.8
03 16.07 В 4 н/о н/о +28.3 -6.2 10 +25 +25 комфорт 1015.1 1001.7
04 16.07 В 4 н/о н/о +29.7 -6.5 9 +26 +26 жарко 1013.5 1000.1
06 16.07 СВ 3 н/о н/о +30.9 -4.2 10 +27 +27 жарко 1011.1 997.8
07 16.07 СВ 3 н/о н/о +30.6 -3.2 11 +27 +27 жарко 1010.7 997.4
09 16.07 В 2 н/о н/о +28.4 -1.6 14 +26 +26 жарко 1011.0 997.7
10 16.07 штиль 0 н/о н/о +24.0 -1.0 19 +23 +23 комфорт 1011.6 998.3
12 16.07 Ю 4 н/о н/о +21.7 +0.8 25 +21 +21 комфорт 1013.3 1000.0
13 16.07 Ю 4 н/о н/о +21.4 +0.6 25 +21 +21 комфорт 1013.8 1000.4 +31.4
15 16.07 штиль 0 н/о н/о +14.6 +0.8 39 +15 +15 1013.7 1000.3
16 16.07 штиль 0 н/о н/о +12.8 +0.2 42 +13 +13 1013.7 1000.3
18 16.07 В 3 н/о н/о +11.8 +0.6 46 +11 +11 1013.7 1000.3
19 16.07 штиль 0 н/о н/о +10.7 -0.1 47 +11 +11 1013.7 1000.3
21 16.07 штиль 0 н/о н/о +11.2 +0.6 48 +11 +11 1013.8 1000.4
22 16.07 ЮЗ 2 н/о н/о +10.9 +1.2 51 +10 +10 1014.1 1000.7
00 17.07 ЮЗ 1 н/о н/о +17.6 -0.2 30 +19 +19 1015.3 1001.9
01 17.07 В 2 н/о н/о +22.2 -0.5 22 +21 +21 комфорт 1015.4 1002.0 +9.7
03 17.07 В 4 н/о н/о +30.1 -3.6 11 +27 +27 жарко 1014.0 1000.6
04 17.07 В 5 н/о н/о +31.7 -3.6 10 +28 +28 жарко 1012.6 999.3
06 17.07 СВ 3 н/о н/о +32.7 -2.9 10 +29 +29 жарко 1011.0 997.7
07 17.07 В 2 н/о н/о +32.8 -1.5 11 +29 +29 жарко 1010.5 997.2
09 17.07 В 2 н/о н/о +30.0 +2.3 17 +28 +28 жарко 1011.2 997.9
10 17.07 В 1 н/о н/о +26.3 +2.9 22 +25 +25 комфорт 1011.6 998.3
12 17.07 ЮВ 3 н/о н/о +22.8 +2.8 27 +22 +22 комфорт 1012.9 999.6
13 17.07 ЮВ 3 н/о н/о +21.7 +1.4 26 +21 +21 комфорт 1013.1 999.8 +33.3
15 17.07 штиль 0 н/о н/о +15.4 +2.2 41 +15 +15 1013.1 999.8
16 17.07 штиль 0 н/о н/о +16.7 +2.7 39 +17 +17 1012.8 999.5
18 17.07 штиль 0 н/о н/о +13.1 +2.1 47 +13 +13 1012.3 999.0
19 17.07 С 1 н/о н/о +12.3 +2.2 50 +13 +13 1012.1 998.8
21 17.07 ЮВ 2 н/о н/о +11.4 +2.7 55 +11 +11 1012.9 999.6
22 17.07 штиль 0 н/о н/о +10.6 +0.9 51 +10 +10 1013.6 1000.2
00 18.07 СВ 2 н/о н/о +19.6 +1.6 30 +20 +20 1015.0 1001.6
01 18.07 В 4 н/о н/о +25.8 +1.2 20 +24 +24 комфорт 1015.1 1001.7 +10.1
03 18.07 С 6 н/о н/о +31.0 -4.1 10 +27 +27 жарко 1014.0 1000.6
04 18.07 СЗ 3 н/о н/о +32.3 -4.6 9 +28 +28 жарко 1013.0 999.7
06 18.07 З 1 н/о н/о +33.9 -3.4 9 +30 +30 жарко 1011.7 998.4
07 18.07 С 2 н/о н/о +33.1 -4.0 9 +29 +29 жарко 1011.6 998.3
09 18.07 штиль 0 н/о н/о +30.6 +0.1 14 +28 +28 жарко 1012.3 999.0
10 18.07 З 2 н/о н/о +25.2 -1.6 17 +23 +23 комфорт 1012.7 999.4
12 18.07 ЮЗ 3 н/о н/о +25.1 +1.9 22 +24 +24 комфорт 1014.0 1000.6
13 18.07 Ю 3 н/о н/о +21.0 +2.3 29 +22 +22 комфорт 1014.5 1001.1 +34.3
15 18.07 ЮЗ 2 н/о н/о +17.9 +2.2 35 +18 +18 1014.4 1001.0
16 18.07 З 1 н/о н/о +16.8 +2.0 37 +18 +18 1014.2 1000.8
18 18.07 штиль 0 н/о н/о +13.9 +1.2 42 +14 +14 1014.1 1000.7
19 18.07 СЗ 2 н/о н/о +16.2 +2.2 39 +16 +16 1014.0 1000.6
21 18.07 С 2 н/о н/о +13.8 +2.4 46 +13 +13 1014.0 1000.6
22 18.07 В 2 н/о н/о +13.5 +3.0 49 +13 +13 1014.5 1001.1
00 19.07 В 2 н/о н/о +21.1 +1.9 28 +21 +21 комфорт 1016.0 1002.6
01 19.07 В 1 н/о н/о +25.6 +0.3 19 +24 +24 комфорт 1016.3 1002.9 +12.9
03 19.07 В 4 н/о н/о +31.0 -1.7 12 +28 +28 жарко 1015.2 1001.8
04 19.07 В 4 н/о н/о +32.6 -2.9 10 +29 +29 жарко 1014.2 1000.8
06 19.07 В 3 н/о н/о +33.7 -5.1 8 +30 +30 жарко 1012.6 999.3
07 19.07 В 4 н/о н/о +33.5 -5.2 8 +29 +29 жарко 1012.4 999.1
09 19.07 В 1 н/о н/о +30.4 -1.1 13 +27 +27 жарко 1013.1 999.8
10 19.07 ЮВ 2 н/о н/о +26.6 +0.4 18 +25 +25 комфорт 1013.7 1000.3
12 19.07 ЮВ 3 н/о н/о +23.5 +1.2 23 +23 +23 комфорт 1014.8 1001.4
13 19.07 штиль 0 н/о н/о +21.1 +1.9 28 +21 +21 комфорт 1015.0 1001.6 +34.4

 

Местоположение метеостанции Fitzroy Crossing Aero (Западная Австралия, Австралия): широта -18.18 долгота 125.56 высота над уровнем моря 115 м.

В архиве по умолчанию представлена погода в Fitzroy Crossing Aero за последнюю неделю. Архивные данные за месяц целиком и за предыдущие месяцы, начиная с января 2011 года, Вы можете получить, выбрав интересующий диапазон дат из раскрывающегося списка и нажав кнопку "Ввод!".


*Определитесь, кто Вы:
робот инопланетянин человек

Внимание! Время в таблицах - всемирное. Для получения местного времени необходимо прибавить поправку, которая в Fitzroy Crossing Aero равна 8 ч.

Смотрите также архив погоды в соседних городах и на ближайших метеорологических станциях:

Погода в Curtin Aero (Западная Австралия, Австралия) (196 км)
Погода в Derby Aero (Северная территория, Австралия) (221 км)
Погода в Halls Creek Airport (Западная Австралия, Австралия) (222 км)
Погода в West Roebuck (Западная Австралия, Австралия) (344 км)
Погода в Argyle Aero (Западная Австралия, Австралия) (352 км)
Погода в Broome Airport (Западная Австралия, Австралия) (353 км)
Погода в Adele Island (Западная Австралия, Австралия) (392 км)
Погода в Wyndham Aero (Западная Австралия, Австралия) (406 км)
Погода в Kununurra (Западная Австралия, Австралия) (428 км)
Погода в Kalumburu (Западная Австралия, Австралия) (447 км)

Пояснения к столбцам:

Ветер - указаны скорость ветра в м/с - средняя за 10 мин, порывы в срок и между сроками (в фигурных скобках) и направление, откуда дует ветер: С - северный, СВ - северо-восточный, В - восточный, ЮВ - юго-восточный, Ю - южный, ЮЗ - юго-западный, З - западный, СЗ - северо-западный.
Видимость - горизонтальная дальность видимости в метрах или километрах. При видимости от 1 до 10 км при отсутствии осадков обычно наблюдается дымка, при ухудшении видимости до 1 км и менее - туман. В сухую погоду видимость может ухудшаться дымом, пылью или мглою.
Явления - указаны атмосферные явления, наблюдавшиеся в срок или в последний час перед сроком; фигурными скобками обозначены явления, наблюдавшиеся между сроками (за 1-3 часа до срока); квадратными скобками обозначены град или гололедные отложения с указанием их диаметра в мм.
Облачность - указаны через наклонную черту общая и нижняя облачность в баллах и высота нижней границы облаков в метрах; квадратными скобками обозначены формы облаков: Ci - перистые, Cs - перисто-слоистые, Cc - перисто-кучевые, Ac - высококучевые, As - высокослоистые, Sc - слоисто-кучевые, Ns - слоисто-дождевые, Cu - кучевые, Cb - кучево-дождевые. Подробнее классификацию облаков см. в Атласе облаков (PDF).
T - Температура воздуха - температура, измеренная на высоте 2 м над землей.
Td - Температура точки росы - температура, при понижении до которой содержащийся в воздухе водяной пар достигнет насыщения.
f - Относительная влажность воздуха - влажноcть воздуха, измеренная на высоте 2 м над землей.
Te - Эффективная температура - температура, которую ощущает одетый по сезону человек в тени. Характеристика душности погоды. При расчете учитывается влияние влажности воздуха и скорости ветра на теплоощущения человека.
Tes - Эффективная температура на солнце - температура, которую ощущает человек, с поправкой на солнечный нагрев. Характеристика знойности погоды. Зависит от высоты солнца над горизонтом, облачности и скорости ветра. Ночью, в пасмурную погоду, а также при ветре 12 м/с и более поправка равна нулю.
P - Атмосферное давление - приведенное к уровню моря атмосферное давление.
Po - Атмосферное давление - измеренное на уровне метеостанции атмосферное давление.
Tmin - Минимальная температура - минимум температуры воздуха на высоте 2 м над землей.
Tmax - Максимальная температура - максимум температуры воздуха на высоте 2 м над землей.
R - Количество осадков - Количество выпавших осадков за период времени, мм. При наведении курсора мыши на число - период времени, за который выпало указанное количество осадков.
R24 - Количество осадков - Количество выпавших осадков за 24 часа, мм.
S - Снежный покров - Высота снежного покрова, см. При наведении курсора мыши на число - состояние снежного покрова и степень покрытия местности в баллах.